This demonstration page uses our WeatherBlox Daily Observations layout. Learn more.

Left ArrowRight Arrow

39.95238, -75.16362

Hourly Observations for August 1, 2022

Temp ( °F °C ) Dew Point ( °F °C ) Humidity (%) Winds ( mph kmh ) Pressure ( in mb ) Visibility ( mi km ) Precip ( " mm )
12:03 am 00:03 Cloudy with Light Rain 73 22.8 69 20.6 87 87 N 3 6 30.05 1018 7 11 0.02 0.51
12:42 am 00:42 Cloudy with Rain 73 22.8 70 21.1 90 90 NW 6 9 30.06 1018 5 8 0.05 1.27
12:46 am 00:46 Cloudy with Heavy Rain 73 22.8 70 21.1 90 90 NNW 6 9 30.06 1018 3 5 0.06 1.52
12:52 am 00:52 Cloudy with Heavy Rain 72 22 70 21 94 94 VRB 6 9 30.06 1018 2 3 0.09 2.29
12:54 am 00:54 Cloudy with Heavy Rain 72 22.2 69 20.6 91 91 NNW 7 11 30.06 1018 2 3 0.11 2.79
1:07 am 01:07 Cloudy with Light Rain 71 21.7 68 20 90 90 N 12 19 30.04 1017 5 8 0.10 2.54
1:13 am 01:13 Cloudy with Light Rain 72 22.2 68 20 87 87 N 9 15 30.04 1017 8 13 0.10 2.54
1:43 am 01:43 Cloudy with Light Rain 71 21.7 67 19.4 87 87 N 3 6 30.04 1017 10 16 0.11 2.79
1:54 am 01:54 Cloudy 71 21.7 67 19.4 87 87 Calm 30.04 1017 10 16 0.11 2.79
2:52 am 02:52 Cloudy with Light Rain 70 21 66 19 88 88 NNE 6 9 30.02 1017 6 10 0.03 0.76
2:54 am 02:54 Cloudy with Light Rain 70 21.1 67 19.4 90 90 NNE 5 7 30.02 1017 6 10 0.03 0.76
3:07 am 03:07 Cloudy with Rain 71 21.7 68 20 90 90 NNE 5 7 30.02 1017 7 11 0.02 0.51
3:26 am 03:26 Cloudy 70 21.1 67 19.4 90 90 NE 6 9 30.01 1016 10 16 0.03 0.76
3:54 am 03:54 Cloudy 70 21.1 67 19.4 90 90 NNE 9 15 30.00 1016 10 16 0.03 0.76
4:10 am 04:10 Cloudy with Light Rain 70 21.1 67 19.4 90 90 ENE 7 11 30.00 1016 6 10 0.00 0.00
4:46 am 04:46 Cloudy with Light Rain 70 21.1 67 19.4 90 90 NNE 8 13 30.00 1016 10 16 0.02 0.51
4:54 am 04:54 Cloudy with Light Rain 70 21.1 67 19.4 90 90 NNE 9 15 29.99 1016 10 16 0.02 0.51
5:46 am 05:46 Cloudy 70 21.1 65 18.3 84 84 NE 7 11 29.99 1016 10 16 0.00 0.00
5:54 am 05:54 Cloudy 69 20.6 65 18.3 87 87 NE 7 11 29.98 1015 10 16 0.00 0.00
6:50 am 06:50 Cloudy 70 21 66 19 88 88 NE 9 15 29.98 1015 10 16 0.00 0.00
6:54 am 06:54 Cloudy 70 21.1 66 18.9 87 87 NE 7 11 29.98 1015 10 16 0.00 0.00
7:54 am 07:54 Cloudy 71 21.7 67 19.4 87 87 NE 7 11 29.99 1016 10 16 0.00 0.00
8:13 am 08:13 Cloudy with Mist and Fog 70 21.1 67 19.4 90 90 NNE 7 11 29.99 1016 4 6 0.00 0.00
8:54 am 08:54 Cloudy with Drizzle 70 21.1 68 20 93 93 VRB 6 9 29.99 1016 3 4 0.00 0.00
9:13 am 09:13 Cloudy with Drizzle 70 21.1 68 20 93 93 VRB 6 9 29.99 1016 2 3 0.00 0.00
9:46 am 09:46 Cloudy with Drizzle 71 21.7 68 20 90 90 VRB 6 9 29.98 1015 2 3 0.00 0.00
9:54 am 09:54 Cloudy with Mist and Fog 71 21.7 68 20 90 90 N 6 9 29.98 1015 3 5 0.00 0.00
10:06 am 10:06 Cloudy with Mist and Fog 71 21.7 68 20 90 90 N 6 9 29.98 1015 5 8 0.00 0.00
10:24 am 10:24 Cloudy 71 21.7 68 20 90 90 N 6 9 29.97 1015 7 11 0.00 0.00
10:32 am 10:32 Cloudy 72 22.2 68 20 87 87 N 6 9 29.97 1015 9 14 0.00 0.00
10:54 am 10:54 Cloudy 72 22.2 68 20 87 87 Calm 29.97 1015 10 16 0.00 0.00
11:10 am 11:10 Cloudy 73 22.8 69 20.6 87 87 VRB 3 6 29.97 1015 10 16 0.00 0.00
11:54 am 11:54 Cloudy 74 23.3 68 20 82 82 N 5 7 29.97 1015 10 16 0.00 0.00
12:54 pm 12:54 Cloudy 74 23.3 68 20 82 82 NNW 6 9 29.97 1015 10 16 0.00 0.00
1:47 pm 13:47 Cloudy 76 24.4 68 20 77 77 W 5 7 29.96 1014 10 16 0.00 0.00
1:54 pm 13:54 Cloudy 76 24.4 68 20 77 77 NW 6 9 29.96 1015 10 16 0.00 0.00
2:42 pm 14:42 Cloudy 78 25.6 68 20 71 71 WNW 6 9 29.95 1014 10 16 0.00 0.00
2:54 pm 14:54 Cloudy 77 25 68 20 74 74 NW 5 7 29.95 1014 10 16 0.00 0.00
3:54 pm 15:54 Cloudy 79 26.1 68 20 69 69 NNW 7 11 29.93 1014 10 16 0.00 0.00
4:54 pm 16:54 Mostly Cloudy 80 26.7 68 20 67 67 SW 6 9 29.91 1013 10 16 0.00 0.00
5:54 pm 17:54 Mostly Cloudy 80 26.7 67 19.4 64 64 SW 6 9 29.90 1013 10 16 0.00 0.00
6:54 pm 18:54 Mostly Cloudy 81 27.2 67 19.4 62 62 VRB 7 11 29.89 1012 10 16 0.00 0.00
7:54 pm 19:54 Mostly Cloudy 81 27.2 66 18.9 61 61 SW 7 11 29.89 1012 10 16 0.00 0.00
8:54 pm 20:54 Mostly Cloudy 79 26.1 67 19.4 67 67 S 5 7 29.89 1012 10 16 0.00 0.00
9:54 pm 21:54 Mostly Clear 78 25.6 69 20.6 74 74 S 5 7 29.89 1012 10 16 0.00 0.00
10:54 pm 22:54 Mostly Clear 76 24.4 69 20.6 79 79 S 7 11 29.89 1012 10 16 0.00 0.00
11:54 pm 23:54 Partly Cloudy 76 24.4 68 20 77 77 S 7 11 29.88 1012 10 16 0.00 0.00

Powered by AerisWeather